CZ-6A DEB, 54904

Orbit data source: Space-Track

CZ-6A DEB, 54904 is space debris in SSO originally from a launch on Fri, 11 Nov 2022 UTC launched from the Taiyaun Space Center, China (TSC). Debris objects in space refer to the collection of defunct objects orbiting the Earth. Examples of debris include non-operational satellites, rocket bodies, and fragments generated from explosions, collisions, or faulty payload assembly.

Loading next visibility...
Identifier
54904, 2022-151QR
Orbit
SSO
Country
Flag of CNCN / PRC
Related business
Manufacturer
SAST
Mission
Spacecraft
Bus & Motor
Unknown
Mass
Unknown
Launch date (UTC)
2022-11-11 (4 years ago)
Launch vehicle
Unknown
Launch site
Taiyaun Space Center, China (TSC)
Object type
Payload
Rocket body
Debris
Shape & HBR
Unknown shape, 0.1 m
Radar Cross Section
Small (<0.1 m²)

Expand to show TLE details & history
Last TLE update: 23 hours ago

TLE from 23 hours ago
0 CZ-6A DEB
1 54904U 22151QR  26262.60466400  .00004830  00000-0  10539-2 0  9992
2 54904  99.0674  24.5495 0081983 107.8626 253.1532 14.56292439202502
Epoch: 2026-09-19T14:30Z
TLE epoch observation values (Epoch: 2026-09-19T14:30:42.969Z)
Latitude
-0.00004°
Longitude
168.35966°
Altitude
725.391 km
Speed
7.483 km/s
True Right ascension
01h 38m 11s
True Declination
0° 00' 00"
Sunlit
Object was in full shadow at epoch
Visualization orbit readout
Latitude
Unknown
Longitude
Unknown
Altitude
Unknown
Speed
Unknown
Apparent Right ascension
Unknown
Apparent Declination
Unknown
Sunlit
N/A
Visualization observer readout
Local Sidereal Time
06:08:04
Azimuth
Unknown
Elevation
Unknown
Doppler factor
Unknown
Orbital elements
Apogee altitude
760.346 km
Perigee altitude
644.251 km
Semi-major axis
7,080.436 km
Eccentricity
0.0082
Inclination
99.0674°
RAAN
24.5495°
Arg. of periapsis
107.8626°
True anomaly
252.25676°
Mean anomaly
253.1532°
Eccentric anomaly
252.70471°
Mean motion
3.64295 °/min
Orbital period
98.82 mins
BSTAR
0.0010539
Loading maneuver chart data...
Computing Atmospheric mass density...
Loading historical data...
Loading historical data...
Loading historical data...
Loading historical data...
Loading historical data...
Loading historical data...
Loading historical data...

Documentation

Showing up to 5 results
|